Wind_Speed
6 3 6 11 10 12 12 10 8 4 1 3 3 2 4 5 5 4 4 4 3 5 7 10 13 11 8 10 13 14 14 14 13 13 13 13 13 14 15 15 16 16 15 18 24 28 29 30 30 30 30 31 32 32 33 34 35 35 35 34 34 34 33 32 32 31 30 30 29 29 29 30 31 30 28 26 25 24 22 20 18 17 17 17 18 17
5 6 12 13 9 8 9 8 8 7 7 5 2 2 4 4 5 6 4 4 2 4 6 7 9 10 9 11 12 13 14 14 15 16 15 16 15 14 16 18 17 14 12 14 19 24 28 29 30 31 30 31 32 32 34 35 36 37 36 36 36 35 34 34 35 34 33 33 32 31 31 31 31 30 30 29 27 25 23 21 19 18 17 18 19 18
5 11 15 10 6 6 6 7 9 10 9 6 4 4 4 4 3 6 5 3 2 3 4 5 7 9 9 10 12 15 17 16 17 19 18 18 17 15 17 17 16 14 12 14 16 21 27 29 31 31 30 32 33 33 35 36 36 36 36 37 36 35 36 37 37 36 35 35 34 32 31 30 29 28 29 29 27 25 24 22 20 19 18 18 19 20
6 11 11 8 7 9 8 7 10 9 8 7 5 5 5 4 3 4 4 2 2 4 3 4 5 6 5 6 9 15 16 15 16 18 17 17 19 19 19 17 15 16 16 16 16 18 23 27 30 31 30 32 33 33 34 36 36 36 37 37 36 37 37 37 38 38 36 34 31 29 28 27 26 25 25 26 26 25 24 23 21 21 20 19 19 20
8 7 6 11 9 11 11 9 10 8 6 7 8 8 7 5 4 3 3 3 4 4 1 3 2 5 4 6 8 10 11 11 11 13 12 13 16 15 14 14 15 17 17 17 18 18 20 24 29 31 31 31 32 33 35 37 37 37 37 38 38 38 37 37 38 37 35 31 28 26 24 21 21 21 21 22 24 24 25 25 24 23 22 20 19 20
10 5 8 14 13 11 12 10 10 8 5 6 9 10 8 7 5 3 4 4 4 4 3 3 1 6 3 8 10 8 9 11 9 11 14 14 13 12 12 14 15 16 16 16 18 18 19 22 27 29 31 31 32 34 36 37 38 37 37 38 38 37 37 37 37 36 34 32 29 27 25 22 21 21 21 24 26 27 27 27 26 24 23 21 20 21
7 5 7 11 13 13 11 9 9 9 6 6 6 9 9 7 5 3 1 1 1 4 4 1 3 5 3 5 10 9 12 16 12 13 17 14 12 13 14 14 15 15 15 15 16 17 18 21 24 27 31 33 33 35 36 36 37 37 37 38 38 37 37 36 36 35 34 33 31 30 30 28 27 26 27 30 30 30 29 28 26 25 24 22 21 21
6 8 8 8 10 11 10 10 10 11 8 7 5 9 8 7 7 6 4 4 4 3 6 2 4 3 5 5 7 10 14 15 14 16 16 14 14 16 16 15 15 16 16 15 15 17 18 21 25 28 32 35 35 35 35 35 36 38 37 37 38 37 36 35 35 35 35 34 33 33 32 31 30 30 29 29 29 29 29 28 26 25 24 24 22 22
7 11 12 9 8 8 10 11 11 12 8 6 7 9 9 9 8 6 5 5 2 1 7 5 4 2 6 6 3 6 12 13 15 18 17 16 17 18 17 17 16 17 17 16 16 17 18 22 28 32 34 35 35 34 35 36 37 38 38 37 38 37 36 35 35 36 36 36 35 35 33 32 31 30 28 26 26 26 27 27 27 26 25 25 24 23
5 10 12 11 8 7 9 9 9 12 10 4 6 6 6 7 6 6 6 4 2 3 9 7 5 3 6 6 3 4 8 11 14 16 15 17 19 19 18 18 17 15 15 16 16 17 18 24 30 32 32 33 34 35 36 36 36 37 37 37 37 37 36 35 36 37 38 38 36 34 34 33 31 29 26 24 24 25 26 26 27 27 27 26 26 25
4 5 10 10 8 6 6 6 7 12 10 5 5 2 1 2 3 4 3 3 2 6 11 9 8 6 5 6 5 4 6 10 12 12 13 15 17 17 17 16 16 14 14 15 15 15 18 24 29 30 30 32 33 35 35 36 36 37 37 36 37 37 36 36 36 38 39 39 37 36 35 35 32 29 27 25 24 24 25 26 28 28 28 27 27 26
5 4 5 5 7 8 6 5 6 9 9 6 5 4 1 2 2 1 1 2 6 9 8 7 8 8 8 7 5 6 8 10 12 13 14 16 17 17 16 16 16 16 15 14 14 13 15 19 23 26 29 31 33 34 34 36 36 37 37 37 36 36 36 36 37 38 38 38 38 38 37 35 33 31 29 28 27 26 27 28 28 29 28 28 28 27
5 6 4 3 5 9 8 6 5 5 7 6 5 6 5 3 1 3 3 2 7 7 5 5 7 6 8 8 8 9 10 11 12 14 15 17 19 19 18 17 16 15 15 14 14 14 14 15 17 22 27 30 32 34 35 36 36 36 37 37 37 37 37 37 37 38 38 38 39 39 38 36 34 32 31 31 30 29 29 29 29 29 29 29 29 29
3 4 7 6 4 7 10 8 5 4 6 7 6 6 6 4 4 7 5 3 5 5 4 5 6 4 4 6 12 15 14 12 12 13 14 16 18 20 19 18 16 16 16 15 15 15 15 16 17 22 27 29 31 34 36 36 37 37 37 38 38 38 39 38 37 38 38 39 40 40 39 37 35 33 33 32 32 31 31 31 31 31 31 30 31 31
2 3 7 6 2 3 9 10 7 6 6 7 7 6 5 5 5 5 4 4 5 4 4 3 5 5 4 4 11 15 16 13 11 12 13 14 16 15 14 13 14 15 15 14 14 16 17 17 19 23 27 29 31 34 36 36 37 37 37 39 39 38 39 39 38 38 39 40 40 40 38 36 35 35 34 33 33 32 32 32 32 32 32 32 32 32
1 4 4 3 6 4 5 7 8 8 5 6 7 6 6 6 5 3 4 5 3 2 4 3 3 4 4 5 6 8 11 11 12 13 13 14 13 10 9 11 13 14 14 14 14 16 17 17 20 24 27 29 31 34 35 36 38 38 37 39 40 40 40 40 39 39 39 40 40 39 38 37 36 35 34 33 33 33 33 32 32 33 33 33 32 32
2 5 7 10 10 3 2 4 6 10 5 3 6 8 6 6 6 3 4 1 2 3 4 3 5 3 2 6 5 4 8 9 11 12 13 14 11 10 11 13 14 14 15 15 15 16 16 16 20 25 28 30 32 34 36 38 39 40 39 39 40 40 39 40 40 40 40 40 39 38 38 37 36 36 35 35 34 34 33 32 32 32 32 33 32 32
2 6 8 7 7 4 9 10 7 9 8 5 6 7 5 4 4 4 4 2 3 6 4 2 6 4 4 6 3 4 7 9 10 11 13 12 10 11 13 13 15 17 17 18 18 17 16 15 18 24 28 31 34 36 37 39 39 40 40 41 41 40 40 40 41 40 40 39 38 38 38 37 37 37 36 36 35 34 32 32 32 32 32 33 33 32
1 4 6 2 3 8 10 6 5 6 8 6 5 7 7 4 5 5 4 5 5 5 3 3 5 4 6 6 3 6 9 10 10 10 11 11 10 12 13 13 15 17 15 16 17 15 14 14 17 23 28 31 34 36 37 38 38 38 39 40 41 42 42 41 41 40 39 39 38 37 37 38 37 37 37 36 34 33 33 33 33 33 33 33 32 32
1 1 4 3 4 9 7 1 3 5 7 5 4 6 6 4 5 6 4 4 4 4 3 3 4 4 6 6 7 10 11 11 12 10 11 13 12 13 13 13 14 14 14 15 16 15 15 16 20 27 31 32 34 35 35 36 37 37 38 39 40 41 41 41 41 40 39 38 37 36 36 37 38 38 37 36 34 34 34 34 34 33 33 32 32 32
2 2 3 6 8 6 3 1 1 1 1 3 3 4 5 3 2 4 4 3 4 4 3 3 4 5 5 5 9 12 12 12 13 12 12 13 13 14 13 13 13 14 15 16 16 16 17 17 21 28 31 31 31 31 32 35 37 37 38 38 39 39 39 40 40 40 39 38 38 37 36 37 38 38 37 36 35 35 35 35 34 33 32 31 31 31
1 1 1 5 6 4 5 6 3 3 2 2 3 2 5 4 3 4 5 3 3 4 4 3 4 7 6 4 7 10 11 12 13 13 12 13 14 15 14 14 15 15 16 17 16 17 17 17 18 24 28 28 28 30 33 35 36 36 37 37 38 38 39 40 40 40 39 38 38 38 38 38 38 37 37 35 35 35 35 34 33 33 32 31 32 32
2 0 1 4 4 7 15 16 10 7 6 4 3 2 2 2 3 4 5 4 4 4 3 3 5 7 6 6 7 9 9 10 11 11 11 11 12 13 13 14 14 15 16 17 16 16 16 16 17 21 25 27 29 32 33 34 35 36 37 37 37 38 39 40 40 41 40 38 38 38 38 37 37 37 36 36 35 35 35 34 33 32 32 32 32 32
4 1 2 4 5 7 12 10 4 2 1 1 1 4 4 3 2 2 5 4 4 4 4 4 7 7 5 4 5 6 6 5 6 8 10 9 9 11 13 13 12 14 15 15 15 15 13 13 13 15 19 23 27 29 31 33 35 36 37 37 37 38 39 39 39 39 39 38 38 37 37 36 36 36 36 36 36 36 35 34 33 32 32 32 32 32
3 0 1 3 3 5 5 2 1 5 5 3 3 5 4 6 9 7 4 2 3 7 8 7 8 6 3 2 2 5 5 5 6 6 7 8 7 9 12 12 13 13 14 14 15 14 13 12 13 14 15 20 26 28 31 33 34 35 37 38 38 38 38 39 38 38 38 37 37 36 36 36 35 35 36 36 36 36 36 34 33 33 33 33 32 32
1 1 2 3 2 3 3 2 1 4 6 5 6 8 8 9 10 6 2 1 4 6 7 7 8 4 2 1 3 4 4 5 7 6 5 7 7 7 8 10 12 12 13 16 16 15 14 14 15 16 16 20 26 28 30 32 34 35 36 37 38 37 37 38 37 37 37 37 36 36 36 36 35 35 36 37 37 36 36 35 34 34 33 33 33 32
1 1 2 4 4 5 4 2 2 4 6 8 12 15 13 8 6 3 2 2 3 3 5 8 8 5 5 5 5 6 6 6 7 6 6 7 9 8 8 10 12 12 14 16 15 15 14 14 16 18 17 21 26 28 30 32 33 34 35 36 37 37 36 37 37 37 37 37 36 36 36 37 37 37 38 38 38 37 37 36 36 35 34 34 33 33
1 2 3 6 6 7 7 6 6 7 8 10 14 16 15 12 7 4 6 6 2 1 6 7 6 9 12 9 8 9 10 8 8 8 8 8 9 10 9 10 13 14 14 14 14 15 16 16 17 17 17 20 25 27 28 30 32 34 34 35 36 36 36 36 37 37 37 37 37 37 38 39 39 40 40 39 38 38 37 37 36 36 35 34 34 35
1 2 3 4 5 7 7 6 8 9 9 10 12 14 16 14 11 8 9 9 6 4 5 6 6 12 15 10 8 9 9 8 9 9 9 9 9 10 10 10 13 15 16 16 15 16 17 17 17 17 17 19 23 26 27 28 30 31 32 34 35 36 37 37 38 38 38 37 38 39 40 40 39 39 39 37 37 36 36 36 36 36 35 35 35 35
1 3 3 4 4 5 6 7 8 8 7 9 11 14 14 14 14 13 13 12 11 9 9 11 12 15 13 7 5 6 5 6 6 4 5 8 9 10 12 13 15 16 17 17 17 17 18 18 18 18 17 17 20 24 26 27 30 32 33 34 36 36 37 38 38 38 37 38 39 39 39 38 37 37 36 36 36 36 37 36 36 35 35 35 35 35
0 2 3 1 3 4 5 5 5 5 7 10 13 12 11 11 11 10 9 8 8 8 11 14 15 13 6 5 7 6 4 3 4 5 5 7 8 9 12 14 15 16 16 17 17 17 17 17 16 16 16 17 20 25 28 29 31 33 33 33 36 37 37 38 38 37 38 38 38 37 36 36 36 35 35 36 36 36 37 36 35 35 35 35 35 34
1 2 4 3 2 3 2 1 4 8 9 9 9 9 7 6 7 6 4 3 3 5 7 9 10 8 6 9 9 7 5 7 7 8 8 8 7 8 11 12 13 15 15 16 16 16 17 16 16 17 17 18 22 26 28 29 29 30 32 34 36 36 36 37 36 36 36 36 36 35 36 36 35 35 36 36 36 36 36 36 35 35 35 35 35 34
1 1 3 2 2 3 1 2 7 8 5 4 4 2 4 3 6 7 4 5 6 3 4 5 6 6 9 10 8 5 6 8 7 7 8 9 10 8 8 8 10 12 14 16 16 17 17 16 16 18 19 20 25 30 32 32 32 33 34 35 35 35 35 36 35 35 35 35 36 36 37 36 36 36 36 37 37 37 36 36 36 36 36 35 35 35
3 3 3 2 2 3 3 5 5 2 2 3 5 4 4 2 5 9 6 7 9 5 3 5 6 9 11 8 5 3 4 5 5 5 6 7 9 9 7 6 7 8 10 13 15 16 16 15 15 17 21 25 30 32 33 33 32 30 30 31 32 34 35 35 34 34 34 35 36 36 36 36 36 36 37 37 37 37 36 36 37 37 37 36 35 35
3 3 3 2 2 3 3 4 0 5 2 2 3 5 7 3 5 11 8 4 12 12 10 10 9 11 11 8 4 2 1 2 3 7 10 9 9 9 7 6 7 7 8 10 12 13 13 14 14 14 19 25 27 28 29 29 26 26 27 30 32 33 34 34 33 33 34 35 35 36 36 37 37 36 36 37 36 36 36 36 37 37 36 35 35 36
4 4 3 3 2 1 2 1 3 4 3 3 0 5 8 5 7 11 5 4 13 16 14 14 13 14 12 9 7 5 3 4 3 8 13 13 11 11 8 4 5 8 9 9 10 11 11 13 15 16 18 22 25 27 28 28 27 28 30 32 32 32 32 32 32 32 33 34 34 35 36 36 36 36 36 36 35 35 35 36 36 37 36 35 35 35
6 5 3 3 3 1 1 2 2 4 4 2 2 5 7 4 6 8 4 3 11 15 15 15 15 16 14 10 8 7 5 4 5 9 14 16 15 12 10 7 3 5 8 8 8 9 11 14 16 17 20 22 25 27 27 28 29 29 29 29 29 30 30 30 31 32 33 33 34 35 36 36 36 36 36 35 34 34 36 36 37 37 36 35 34 35
7 6 4 3 2 2 1 1 2 3 2 2 2 6 6 5 7 6 4 3 10 16 17 16 16 17 15 11 9 6 3 4 7 8 12 16 16 14 11 9 6 2 5 8 9 10 13 17 19 20 23 23 23 25 26 28 29 29 28 28 28 29 29 30 31 32 32 33 35 36 36 37 37 37 35 35 35 36 37 37 37 37 37 36 35 36
10 7 4 3 2 1 2 1 2 3 3 1 4 8 8 7 6 3 3 0 9 16 17 16 16 17 14 12 9 5 3 5 5 5 10 13 14 13 11 10 8 7 5 7 11 13 15 20 23 23 25 24 23 25 28 29 29 28 26 26 28 28 28 29 32 33 34 35 36 36 37 37 37 37 36 35 36 37 38 38 37 37 36 35 35 36
10 6 5 5 4 2 2 2 3 3 3 3 7 10 11 8 3 1 3 1 9 14 15 15 16 16 14 12 9 7 6 4 3 4 9 12 12 12 11 10 9 8 8 8 10 15 19 22 23 22 22 24 26 29 31 31 30 28 26 26 27 27 28 32 34 35 35 35 35 35 36 36 37 37 36 36 37 38 38 38 37 35 33 33 34 34
5 5 5 5 4 4 4 3 3 3 2 5 8 11 12 7 1 3 1 2 8 12 13 14 15 15 14 11 8 6 5 4 6 8 11 13 13 12 12 11 11 12 12 12 12 15 18 18 18 18 18 23 28 31 32 32 30 26 25 25 25 27 30 33 33 33 33 33 32 33 34 34 35 36 36 37 37 37 36 36 35 34 33 33 33 33
5 5 4 4 4 3 3 3 3 3 1 5 9 10 8 2 2 2 3 3 7 10 12 14 14 13 13 10 7 6 7 10 12 12 13 14 13 12 12 12 13 14 16 17 17 17 17 16 17 16 14 18 25 29 30 30 26 22 23 23 24 26 28 28 30 31 31 31 31 32 32 33 34 34 35 35 34 33 33 34 34 33 32 32 31 31
2 3 3 3 3 2 3 3 2 1 2 8 10 8 5 5 2 4 5 5 6 9 11 12 12 12 12 11 9 11 12 13 13 12 13 14 13 13 13 13 13 12 13 16 17 16 16 16 16 17 16 17 20 24 26 26 21 19 20 20 20 22 22 23 26 29 29 30 31 31 31 31 32 33 33 33 33 33 33 33 33 32 31 31 30 29
2 0 1 1 0 1 3 2 0 1 4 8 6 4 6 6 4 6 7 6 7 8 9 9 11 13 13 12 12 13 12 12 12 13 13 13 14 13 13 13 13 12 12 14 16 18 18 16 15 17 20 20 20 22 24 25 22 19 17 16 16 19 21 22 23 24 26 29 30 30 30 31 31 33 33 33 33 33 32 32 31 31 30 30 29 28
3 2 1 2 2 2 3 3 1 0 2 5 7 8 8 7 7 8 8 7 7 8 8 8 11 14 14 13 12 11 11 11 11 12 11 11 12 13 14 14 14 13 13 15 17 19 18 16 16 18 20 21 22 23 23 25 25 21 16 14 14 16 18 21 23 24 26 28 30 31 32 31 32 33 34 34 34 33 32 31 30 29 29 29 28 27
3 4 1 2 4 6 5 5 1 2 3 5 7 7 7 7 7 8 8 7 7 9 9 9 11 13 14 13 12 10 10 10 10 10 11 11 12 13 14 15 15 15 15 15 16 17 18 17 17 18 18 19 21 22 22 23 24 21 17 14 13 12 14 18 21 23 25 27 29 30 31 31 32 33 33 33 33 33 33 33 31 30 29 28 28 27
3 4 2 2 6 5 2 1 4 7 4 2 6 6 6 7 6 6 6 6 7 9 11 11 12 13 13 13 12 11 11 11 11 10 10 10 12 13 13 13 13 14 14 14 15 17 17 15 14 14 15 16 18 20 20 20 20 18 17 15 13 11 10 12 15 18 21 24 26 27 28 29 30 30 30 31 31 31 31 31 31 29 28 27 26 25
4 5 4 4 6 4 4 4 9 9 4 3 6 5 5 5 6 6 5 7 7 8 11 13 12 11 12 13 13 13 15 15 13 12 9 7 8 10 11 11 10 11 14 17 17 16 15 12 11 12 12 13 15 17 18 18 17 15 15 16 14 11 9 9 10 12 15 17 21 24 26 28 28 27 27 27 28 27 27 27 28 28 28 28 27 26
5 5 5 6 6 6 5 5 8 8 3 5 5 4 4 3 4 6 5 6 7 8 10 12 12 11 12 13 12 12 15 16 15 14 12 8 6 7 8 11 12 12 14 17 16 14 13 11 10 11 11 11 13 15 15 16 16 14 14 14 12 10 10 9 7 6 7 10 14 17 21 24 25 25 25 25 24 23 22 22 24 24 25 26 28 28
5 6 6 6 5 4 3 5 7 7 5 3 5 9 6 1 2 6 6 6 7 7 8 10 11 11 12 13 11 11 12 14 14 14 13 11 8 7 7 9 12 15 16 16 16 15 14 12 12 12 12 11 12 13 14 15 15 14 13 12 9 8 9 9 7 6 4 5 8 12 15 18 20 21 23 23 23 21 19 17 18 19 20 21 22 24
6 7 7 6 6 7 8 10 9 7 8 9 9 10 8 3 2 7 10 8 8 8 6 7 8 8 10 12 12 9 9 12 13 13 12 12 12 13 13 11 10 12 16 17 16 15 14 14 13 13 12 12 12 12 13 14 14 13 13 11 9 8 8 8 8 7 4 2 4 8 11 14 17 19 20 22 22 21 19 15 12 12 14 16 17 19
Wind_Direction
159 166 203 212 211 202 206 202 202 229 228 182 172 196 212 222 255 249 256 271 173 187 226 208 213 215 188 187 186 179 183 186 184 182 183 184 183 187 190 192 194 197 198 191 191 194 195 195 194 194 194 194 195 196 197 196 197 198 198 198 200 202 203 202 203 204 206 208 211 215 217 220 222 222 222 223 223 223 222 224 229 235 233 228 225 228
157 200 221 217 206 200 202 190 192 224 249 263 250 254 261 234 251 257 253 286 194 179 246 224 217 224 199 190 188 177 183 191 188 186 188 187 187 190 192 195 196 194 190 186 190 194 195 196 195 195 195 193 194 195 196 197 197 198 198 199 200 200 201 203 204 204 206 209 211 213 216 219 221 222 223 223 223 223 224 226 230 234 234 231 229 232
183 223 226 205 175 187 191 176 184 208 225 243 247 253 271 237 251 273 255 272 210 191 257 223 208 229 213 194 187 181 188 196 193 190 189 186 186 192 195 196 194 188 184 187 191 193 194 196 195 195 196 195 195 195 196 198 198 198 198 200 200 200 201 203 205 206 208 211 213 214 216 218 221 223 225 225 225 226 227 229 231 234 236 236 235 236
193 234 218 169 158 185 189 183 180 196 216 218 221 230 246 219 202 265 269 304 253 221 234 201 213 236 210 193 198 195 197 199 198 197 192 188 190 193 195 194 189 186 187 190 192 193 194 195 195 196 197 196 196 195 196 197 197 197 199 200 200 201 202 203 205 207 208 210 212 214 217 220 222 225 227 227 229 231 230 231 232 233 235 237 239 239
221 257 172 158 177 187 190 194 184 190 214 214 216 219 225 219 210 255 299 334 318 295 250 151 283 287 187 181 212 208 207 212 206 200 199 200 199 196 193 192 192 190 189 189 191 193 193 195 196 196 196 195 195 196 197 196 197 198 199 200 200 201 203 204 205 206 206 206 207 209 213 218 220 224 226 224 227 230 230 230 231 230 231 235 237 237
239 251 149 168 184 186 195 202 195 192 207 226 222 215 213 213 218 265 316 351 355 316 292 150 230 288 219 190 208 197 200 215 207 198 207 206 199 196 196 196 196 195 192 192 192 192 193 195 196 196 197 196 197 198 198 198 198 199 200 201 201 201 203 205 205 204 203 202 202 202 203 205 209 212 217 218 221 224 225 228 229 229 230 232 233 234
230 205 162 181 182 181 198 209 200 184 197 237 211 194 202 193 190 220 271 309 226 247 276 143 169 266 299 219 213 187 195 209 201 203 211 204 195 198 202 199 196 195 193 195 195 192 193 193 194 196 197 197 198 199 198 198 199 200 201 201 201 202 203 204 204 203 201 201 201 202 203 204 206 208 214 218 220 221 222 225 228 229 230 231 232 234
189 186 184 192 180 179 197 210 196 174 195 232 170 159 183 184 194 205 193 217 235 263 287 279 149 234 289 256 219 187 200 209 201 210 211 201 201 204 205 201 196 197 194 193 193 192 192 193 195 197 198 199 200 198 197 198 199 200 201 202 202 202 203 203 203 202 202 201 202 203 205 207 210 212 215 218 219 221 223 224 226 228 230 231 232 235
177 186 188 187 186 191 201 206 188 174 202 221 156 151 169 185 201 192 183 226 244 333 281 259 150 208 270 272 253 186 203 212 207 213 210 201 205 206 206 204 198 199 197 195 194 192 192 193 196 198 199 200 199 197 197 198 199 201 201 202 202 202 203 202 202 202 203 204 204 204 205 208 212 215 217 219 220 221 222 223 224 227 230 231 232 235
194 182 181 186 197 201 206 205 175 181 209 198 149 147 148 172 183 168 181 208 188 220 252 241 168 199 269 274 267 181 201 215 214 216 210 204 208 206 206 205 199 197 197 199 197 195 194 193 196 199 198 199 198 198 198 198 199 200 201 201 201 202 202 202 202 203 204 205 205 206 207 209 211 213 215 217 220 220 220 221 222 225 228 229 232 234
234 178 175 193 204 186 192 199 172 187 197 154 154 176 77 121 127 146 176 150 179 238 244 226 175 184 254 262 232 201 204 204 208 218 213 209 212 210 209 205 199 196 198 201 198 196 196 194 195 196 196 197 197 198 197 197 198 199 200 201 201 202 202 201 202 203 205 206 206 208 209 210 210 210 210 212 216 216 217 219 220 223 226 228 230 234
247 217 188 206 200 165 161 202 195 195 187 155 163 173 209 314 70 113 24 131 214 240 243 214 169 182 232 252 231 223 222 203 203 214 209 207 211 210 210 205 199 198 197 198 196 194 194 194 194 192 194 196 195 196 196 196 197 198 199 200 200 202 201 201 202 203 205 206 207 210 211 212 211 209 209 210 212 213 215 217 219 221 224 226 228 232
233 225 224 245 203 169 166 197 202 199 191 178 163 149 178 227 161 206 224 205 226 244 239 178 153 194 231 245 238 232 231 214 208 214 209 206 207 207 207 202 200 200 194 193 194 194 192 194 194 191 192 193 192 194 195 195 196 196 198 198 199 201 201 201 202 203 205 206 208 211 211 213 212 211 211 211 212 214 215 217 217 219 221 223 225 228
217 218 219 225 222 177 176 189 191 190 189 189 181 165 178 181 185 212 220 238 245 257 251 158 150 224 245 240 233 228 231 222 211 218 215 209 209 208 206 201 199 198 194 193 193 193 195 195 195 193 192 192 192 193 194 194 195 195 196 197 198 201 201 201 202 203 204 206 209 211 211 212 211 211 213 213 213 214 216 217 218 220 222 223 225 227
196 222 219 210 238 198 190 192 179 164 178 194 186 172 178 177 184 202 198 220 233 251 259 168 162 208 194 218 224 219 226 222 213 221 217 214 215 209 203 199 200 200 197 197 195 195 198 195 193 193 193 194 193 193 193 194 194 194 195 196 197 200 200 201 202 202 204 207 210 211 211 212 212 212 213 214 215 215 217 218 219 221 224 226 228 229
248 258 270 314 322 291 221 204 165 150 187 199 172 176 199 181 168 191 199 192 179 233 249 201 202 217 208 256 251 223 228 217 213 223 218 217 215 194 187 193 197 201 199 198 198 200 200 193 192 193 194 195 194 193 194 193 194 194 194 196 197 199 200 200 202 203 205 207 209 210 211 211 212 213 213 214 215 217 218 219 220 223 225 228 230 232
338 277 307 332 321 317 343 292 192 171 184 181 174 193 196 159 153 198 242 192 128 228 242 217 243 256 252 275 274 219 227 221 217 224 222 219 203 180 187 193 194 198 197 198 201 202 197 191 193 194 194 195 194 194 194 194 194 194 194 195 197 199 200 200 202 203 206 207 208 209 210 211 212 212 213 214 216 217 219 221 223 225 226 229 231 232
5 283 298 315 292 310 354 326 253 190 161 150 189 191 153 115 153 184 237 250 206 235 263 255 238 215 192 252 264 174 207 225 222 223 227 222 193 185 198 195 194 196 194 198 202 201 195 192 194 195 195 196 195 194 195 195 195 195 195 195 196 197 199 200 202 203 206 207 207 209 209 211 212 213 214 216 217 217 218 221 223 226 228 230 231 233
25 295 297 285 255 311 338 332 266 220 185 178 178 168 153 160 180 179 210 222 214 235 268 277 261 221 199 227 223 187 203 219 220 221 230 224 198 196 204 199 196 197 194 198 203 200 193 192 193 194 196 197 196 196 195 195 195 195 196 196 196 198 199 200 202 203 205 206 207 208 209 210 211 213 215 216 217 217 218 221 223 226 229 231 233 234
359 3 287 326 359 323 317 260 217 227 221 213 163 158 170 185 185 185 192 190 198 223 243 274 290 259 228 213 191 197 205 208 209 211 222 224 213 204 203 200 197 194 194 198 200 198 194 194 194 194 196 196 194 194 193 193 194 195 196 196 197 199 199 200 201 202 204 206 207 208 209 210 211 212 214 215 215 216 219 222 223 226 229 231 233 234
5 73 262 315 347 329 275 197 158 152 237 232 200 176 184 194 187 198 208 175 170 190 204 244 264 255 248 210 188 200 206 203 202 201 208 218 218 212 205 200 195 193 197 200 198 197 196 196 195 195 195 194 191 190 190 192 194 195 196 196 197 197 198 199 201 202 203 204 205 207 208 209 210 212 214 215 215 217 220 222 223 226 228 229 232 233
351 72 261 306 336 318 272 283 320 7 354 254 253 231 200 195 157 185 225 216 179 199 189 192 251 261 256 216 194 204 208 205 202 198 203 210 212 213 210 200 195 195 199 200 198 198 197 196 194 192 190 187 186 188 190 192 192 193 195 196 196 196 197 198 199 201 203 203 205 206 208 209 210 211 213 214 215 218 220 221 223 225 226 228 231 233
293 118 298 287 276 263 269 275 282 284 269 242 248 308 306 269 141 174 228 213 192 222 176 166 259 263 239 212 204 208 211 214 209 197 200 210 208 212 215 206 199 199 201 201 198 197 198 196 190 185 183 184 186 188 189 189 190 192 195 195 195 196 197 198 199 201 202 202 204 206 207 208 209 210 212 213 215 217 219 221 222 223 225 227 229 232
314 8 338 302 284 272 270 270 284 303 261 178 309 356 350 321 343 284 250 195 185 212 175 200 253 249 225 219 224 234 239 241 232 208 204 210 204 206 214 211 204 203 203 201 199 199 197 190 182 179 182 185 186 187 187 188 190 191 193 194 195 197 198 198 198 200 200 201 204 206 206 208 209 209 211 212 215 217 219 220 221 222 224 227 228 230
321 35 55 11 348 312 289 267 12 9 22 21 322 324 320 329 342 323 265 175 218 212 176 195 242 239 226 271 281 281 287 281 266 245 225 222 210 200 208 212 207 204 203 200 199 197 187 177 177 180 184 185 185 186 187 187 188 190 191 193 195 196 197 197 197 198 199 200 202 204 205 207 208 209 210 212 214 217 218 219 220 221 223 225 226 228
290 174 106 94 125 223 235 193 195 325 332 323 304 306 317 336 343 330 309 293 253 221 175 200 233 218 133 256 255 245 251 263 272 279 264 246 236 212 203 211 213 206 202 200 197 192 183 180 182 184 184 185 186 187 186 186 187 189 191 192 194 195 195 195 196 196 197 199 201 202 204 205 207 209 211 212 214 216 218 218 219 220 222 223 224 226
275 244 169 169 184 220 245 252 254 275 292 300 303 306 308 311 311 306 273 244 234 198 198 227 243 247 237 235 244 241 228 230 245 254 251 244 243 231 208 208 214 211 204 200 195 188 183 183 186 185 184 185 186 187 186 185 186 187 189 190 192 193 193 193 194 195 196 198 200 202 203 205 207 209 211 213 214 216 217 217 219 220 221 222 223 225
301 296 229 203 212 237 259 277 282 283 285 286 292 296 296 294 288 255 229 244 276 210 228 241 254 263 254 227 207 232 240 233 227 227 230 234 235 234 221 208 210 212 208 201 193 187 183 185 188 186 184 183 184 185 185 185 186 187 188 189 189 191 191 192 192 194 196 197 199 202 204 206 208 210 212 214 214 215 216 217 218 220 221 222 223 225
247 272 242 219 233 245 251 269 277 278 277 272 272 276 281 285 282 262 245 248 250 244 265 279 249 249 259 248 215 229 240 231 221 217 225 234 236 235 230 214 208 207 205 199 192 186 186 187 187 185 184 182 181 181 181 183 185 186 186 187 188 189 190 190 191 193 195 196 199 203 205 207 209 210 212 213 214 215 216 217 219 219 220 222 223 226
238 272 246 233 257 253 247 264 270 271 276 275 270 268 272 279 277 267 257 247 238 243 271 282 266 254 260 277 278 266 257 238 234 235 237 239 240 236 227 218 210 202 198 196 191 188 189 188 186 183 181 179 179 180 179 180 183 184 185 186 187 188 189 189 190 193 194 197 201 203 205 206 207 209 210 211 213 215 216 218 218 219 220 222 224 226
15 291 296 303 284 262 250 258 263 270 281 281 277 275 276 285 290 279 263 254 243 240 250 260 266 265 278 358 340 305 314 340 321 319 289 255 245 231 217 215 209 198 193 192 189 188 188 186 184 179 177 180 182 180 180 181 183 184 184 185 186 188 188 188 190 192 195 198 201 202 203 205 206 208 209 211 213 215 217 217 218 219 220 222 223 225
74 307 330 360 307 274 247 255 296 298 291 271 267 282 288 303 331 326 300 310 290 254 256 258 257 270 319 345 329 316 7 27 8 347 329 306 282 237 212 211 206 193 187 188 188 188 188 183 178 177 179 183 182 182 183 182 181 182 183 185 186 186 186 187 189 192 195 198 200 201 202 204 205 207 209 211 213 214 216 217 217 219 220 221 223 224
163 284 317 305 265 274 264 326 318 311 299 243 211 284 302 308 351 336 324 3 351 287 259 260 256 296 319 317 314 332 24 35 21 0 341 323 309 275 230 214 208 197 188 185 185 186 185 181 179 180 182 182 182 185 185 182 181 184 185 184 184 183 183 186 189 192 195 197 198 200 202 203 204 206 208 210 212 214 215 216 217 219 220 221 223 223
192 222 276 269 259 271 287 324 322 251 220 216 151 73 344 312 6 341 322 2 1 336 286 274 278 308 317 314 323 355 46 56 36 8 352 338 325 300 256 219 209 206 197 190 188 187 184 182 182 183 183 184 185 186 184 183 184 184 182 179 179 180 183 186 188 191 194 197 199 200 202 203 204 206 209 211 212 213 214 215 217 219 220 221 222 222
185 215 257 259 235 268 315 353 289 182 212 269 150 49 4 8 16 338 309 3 13 358 345 335 321 318 319 312 300 294 75 58 36 25 13 359 344 322 282 222 191 189 194 194 190 186 181 179 178 180 183 184 183 180 180 181 179 175 174 176 178 181 184 185 188 191 194 197 199 200 201 203 205 207 209 211 211 212 213 215 217 218 219 220 221 222
179 207 244 244 224 281 346 92 186 217 304 322 165 26 14 24 14 350 323 19 18 5 353 344 329 322 322 309 287 277 281 297 357 29 14 1 355 346 325 283 206 183 180 186 188 184 180 179 177 177 178 176 174 174 176 177 174 171 173 176 179 181 183 184 188 192 195 197 199 201 202 203 205 207 209 210 210 211 213 215 217 219 219 220 221 223
177 197 229 247 217 164 176 225 266 296 314 359 27 3 358 341 340 340 300 327 10 6 353 344 333 326 324 316 301 286 277 309 10 16 5 359 355 349 340 328 297 186 167 163 165 164 164 167 166 164 163 164 169 174 175 174 172 170 171 174 177 179 181 184 190 193 196 198 200 202 203 204 205 207 209 209 209 210 213 215 218 219 219 219 220 222
181 198 204 235 228 112 89 277 309 295 228 148 355 329 326 306 305 304 257 288 5 360 347 344 339 329 325 325 321 304 292 26 27 3 352 354 352 349 349 347 350 37 140 145 143 141 144 148 149 152 156 159 165 171 171 171 171 169 169 173 176 178 181 187 193 195 197 199 202 203 204 205 206 208 208 208 209 211 214 216 218 219 219 218 220 222
187 200 203 236 257 88 106 205 247 233 213 227 329 321 315 310 312 296 210 278 1 350 342 342 340 334 330 330 339 1 54 56 37 355 344 348 350 353 353 354 9 28 55 111 130 136 140 142 144 148 152 155 162 168 170 170 169 168 170 174 176 178 183 190 195 197 199 202 204 205 205 206 207 208 208 209 210 213 215 217 218 220 219 219 220 223
186 190 204 222 232 225 200 227 256 243 250 319 333 326 314 310 333 119 169 8 350 339 337 341 339 336 331 331 355 36 51 54 51 2 352 353 357 5 7 8 20 33 41 65 106 126 134 139 142 147 154 160 165 169 170 169 169 171 174 176 178 181 188 195 199 200 201 204 205 205 206 207 208 210 210 210 212 214 216 218 219 219 218 219 221 224
181 175 201 213 219 228 220 233 266 256 280 326 327 319 310 302 87 113 122 358 334 327 334 339 337 336 335 342 10 32 20 20 34 22 11 8 6 9 12 17 27 40 48 52 72 101 114 122 130 138 152 162 165 166 168 169 171 174 176 175 180 189 194 198 200 201 203 205 205 206 208 209 210 211 212 213 214 215 216 218 219 218 218 218 220 222
169 165 190 207 211 218 204 227 272 255 305 336 326 322 327 354 89 47 31 8 331 328 337 340 338 339 338 343 4 15 12 21 25 23 18 13 9 6 8 17 28 38 48 53 60 77 91 96 101 106 122 150 160 164 167 168 167 169 172 175 185 193 196 197 199 201 204 205 207 208 209 210 212 213 214 216 216 215 217 218 219 219 219 218 219 221
152 180 189 187 198 209 197 222 266 257 336 334 328 334 18 53 27 337 350 353 340 342 344 341 342 341 336 339 357 11 18 20 18 20 20 14 9 5 6 16 24 27 39 47 50 61 76 82 83 84 92 121 146 156 159 157 152 153 161 170 182 188 190 194 198 201 204 206 208 210 211 211 213 213 215 216 216 215 217 218 218 219 218 217 218 219
46 275 203 165 156 185 188 209 310 277 309 328 346 43 60 55 20 348 351 351 347 348 347 343 340 337 338 346 357 6 13 15 12 17 18 12 7 5 7 16 20 20 30 40 43 52 64 70 73 73 77 92 113 132 142 142 133 131 139 150 167 179 183 188 193 197 203 207 210 212 213 213 214 214 215 217 215 215 217 218 217 218 218 217 217 217
25 349 256 232 283 298 257 263 298 56 333 3 45 68 62 48 29 7 0 357 349 342 337 338 337 336 341 350 355 2 10 9 6 12 15 11 8 8 10 15 17 17 23 31 38 47 56 62 68 69 68 74 88 104 118 124 121 115 116 126 144 164 178 185 189 193 200 205 209 212 213 214 215 215 216 216 215 214 215 216 216 216 216 216 215 215
334 334 309 234 306 312 270 242 268 22 30 57 72 74 65 51 31 11 1 355 348 339 333 334 337 336 340 349 355 358 4 4 3 8 11 11 9 8 9 10 12 16 21 25 30 39 50 58 61 64 65 66 75 86 97 106 111 110 109 113 120 138 166 181 187 192 198 204 208 211 212 212 214 216 216 216 215 215 215 216 215 214 214 214 214 215
322 339 360 346 335 325 255 195 5 346 332 88 91 77 62 46 29 18 2 345 342 340 330 327 334 337 341 351 357 353 353 1 7 7 9 11 8 5 3 3 3 7 13 19 25 34 44 52 53 57 60 61 68 78 84 90 96 101 107 109 107 113 141 166 180 189 196 202 207 210 211 211 213 215 215 215 215 215 216 217 215 214 213 212 211 212
337 346 355 348 336 305 273 324 343 328 310 118 103 79 59 35 12 11 3 341 338 338 328 324 332 340 345 351 355 352 350 355 0 1 4 10 9 1 357 354 352 358 7 13 21 33 41 44 50 58 59 59 67 75 79 83 85 88 94 99 99 100 109 128 158 178 189 198 205 208 210 211 212 212 212 213 213 213 214 216 215 215 214 213 212 211
324 335 342 333 317 283 272 332 359 353 6 113 100 42 34 39 356 344 342 335 332 329 325 324 328 339 345 346 350 353 350 348 352 354 352 353 6 6 353 346 344 350 2 7 11 24 39 41 46 57 59 60 68 73 74 76 77 77 79 83 87 92 93 95 112 145 172 191 201 205 207 208 208 207 207 207 206 207 209 211 213 215 216 217 217 216
337 337 338 328 311 286 296 354 3 343 306 269 307 325 326 350 350 322 312 313 314 309 314 320 322 332 340 336 339 353 350 339 341 349 345 340 350 355 347 345 347 347 354 3 6 12 25 35 42 51 53 55 63 69 68 68 70 71 72 74 80 88 89 86 87 95 123 179 198 205 206 204 202 201 201 200 197 196 196 200 207 211 213 215 218 219
337 325 322 313 294 284 295 308 310 293 276 275 284 294 291 278 306 303 295 290 288 287 294 305 309 320 330 324 324 342 348 333 332 342 341 333 334 338 339 347 358 349 344 352 2 2 5 18 30 38 41 47 57 63 62 62 64 63 62 64 72 86 95 95 92 90 92 139 201 205 202 198 193 192 193 192 190 187 183 180 184 196 204 208 211 215
Height
752 764 767 762 759 758 758 759 761 760 760 764 767 768 768 768 766 758 752 744 740 753 757 752 754 752 752 753 749 748 749 752 755 757 760 761 763 765 766 766 766 767 767 769 773 777 780 783 785 788 791 793 796 798 801 803 805 808 810 813 815 818 821 823 825 828 829 831 833 834 836 837 838 841 843 844 846 847 849 851 852 853 855 856 857 858
753 765 760 750 752 753 754 757 759 761 762 764 768 771 770 769 766 755 751 745 739 751 755 749 754 753 749 750 747 747 751 752 752 755 757 758 760 761 761 762 762 763 766 769 772 774 778 781 783 786 788 790 793 795 798 800 802 805 808 810 812 815 818 820 822 824 826 828 829 831 833 835 837 839 841 842 844 846 848 850 851 852 854 855 856 857
762 759 748 745 750 751 754 755 758 761 763 766 769 772 775 769 764 756 749 745 742 750 754 749 754 753 746 746 745 744 746 745 743 744 748 750 755 757 757 758 759 763 766 768 769 771 774 777 780 783 785 787 789 792 795 797 800 803 805 807 810 812 814 817 819 821 823 826 828 830 832 834 837 838 840 842 844 846 847 849 850 851 852 854 855 856
764 750 739 744 748 750 755 754 756 761 763 766 768 773 774 765 764 763 754 748 745 746 749 749 752 751 746 746 746 741 738 738 737 738 741 743 746 748 749 752 756 761 763 765 767 768 770 774 776 779 781 784 786 789 792 794 797 800 802 805 807 810 812 814 817 819 822 825 828 830 832 834 836 838 840 841 843 845 846 848 849 850 851 852 853 855
751 738 734 742 746 748 755 755 756 762 765 764 762 767 769 762 762 763 756 751 747 745 744 748 759 755 748 751 749 742 740 740 740 742 744 743 742 744 747 750 753 754 756 760 762 764 765 768 771 774 778 781 783 785 787 790 793 796 798 801 804 807 809 812 814 817 821 824 827 830 832 835 836 837 839 840 842 843 844 846 847 848 850 851 852 853
744 734 733 740 744 746 752 754 754 758 766 765 758 756 759 759 760 759 757 756 761 763 749 749 771 766 748 750 748 742 745 745 743 745 745 744 744 747 749 749 749 750 752 754 756 758 761 764 769 773 775 778 780 781 784 787 790 793 796 799 802 805 807 810 812 816 819 822 824 827 830 832 833 835 836 837 838 840 841 843 845 847 849 850 852 853
737 733 734 739 742 744 750 752 749 751 764 768 753 747 752 755 758 760 759 762 771 772 752 747 771 772 753 749 745 741 745 744 742 743 741 741 744 744 744 744 745 747 749 751 753 755 758 762 766 768 771 773 775 778 782 786 788 791 794 797 800 802 805 808 811 814 817 819 822 824 826 828 829 831 832 833 836 837 839 842 844 846 848 849 851 852
730 733 736 738 741 745 749 749 744 744 759 761 745 743 751 753 757 760 760 765 766 763 756 749 759 771 764 748 739 739 743 744 744 742 739 739 741 739 738 739 741 742 743 746 750 752 754 757 759 763 766 768 771 776 780 783 786 789 792 795 797 800 803 806 809 812 815 817 819 821 823 825 827 828 830 832 835 837 839 841 843 845 847 848 850 851
723 732 735 736 742 745 741 738 736 740 751 749 737 740 746 749 753 755 760 764 761 766 772 759 754 773 772 744 734 739 744 747 744 738 737 736 735 734 734 735 736 737 739 741 744 747 748 751 754 758 761 766 770 774 777 780 783 786 789 792 795 798 801 804 807 810 812 814 816 819 821 823 825 827 830 832 834 836 838 839 841 843 845 847 848 850
720 723 725 730 738 738 732 730 730 737 743 738 735 739 741 746 750 753 760 762 764 776 779 763 756 774 774 746 736 743 745 745 740 733 732 730 728 728 729 730 731 734 736 737 739 742 744 747 751 755 759 764 768 771 774 777 781 784 787 790 793 795 798 801 804 807 809 812 814 817 818 820 823 826 829 832 833 835 837 838 840 842 843 845 847 848
717 714 717 721 725 727 727 727 728 731 734 733 737 743 746 749 750 753 757 759 773 781 769 757 753 766 774 751 736 739 733 730 731 729 728 726 725 726 725 726 728 731 733 733 736 738 741 745 749 754 758 762 765 768 772 775 777 781 784 787 790 793 796 799 801 804 806 809 812 814 816 818 821 824 827 829 831 833 835 837 838 840 842 843 845 846
720 719 719 715 713 718 724 728 728 726 728 734 740 747 756 761 759 762 765 767 783 781 760 751 749 760 772 750 730 727 719 716 721 722 723 723 723 722 721 722 723 725 727 730 734 737 740 744 746 750 754 757 762 765 768 771 774 777 780 784 787 790 793 796 799 802 804 807 809 811 814 816 819 822 824 826 828 831 833 834 836 838 840 841 843 844
726 723 718 714 709 712 724 733 734 731 731 738 743 751 768 779 778 782 782 777 780 771 751 747 751 759 759 736 722 721 714 711 711 709 712 714 715 715 714 716 717 719 723 727 730 733 736 739 741 744 749 752 757 760 764 767 770 774 777 780 784 787 790 793 796 799 801 804 806 808 811 813 817 819 821 823 826 828 830 832 834 836 838 839 840 842
733 724 717 718 714 709 717 731 740 740 738 742 746 754 770 783 790 795 790 780 777 765 746 743 753 759 749 726 713 711 707 704 703 702 703 703 705 706 706 709 712 715 719 721 724 728 730 732 735 739 743 747 751 755 759 763 766 770 773 776 780 783 786 790 793 796 798 801 803 805 808 811 814 817 819 821 823 825 827 830 832 834 836 837 838 839
751 741 724 720 721 713 712 720 727 732 736 738 736 744 758 766 777 786 783 779 775 763 749 748 755 755 741 720 703 697 696 696 698 697 696 696 697 699 703 708 712 714 716 717 720 722 723 726 730 735 739 743 746 750 755 758 762 765 768 772 775 779 783 787 790 792 795 797 800 803 806 809 811 813 816 818 820 822 825 827 829 831 833 835 836 838
765 751 729 723 726 720 715 711 710 721 735 733 727 740 751 746 750 763 765 762 762 760 753 750 748 736 722 707 695 694 694 692 695 694 693 695 694 698 705 708 710 712 713 715 717 718 719 722 727 731 734 738 742 746 750 753 757 760 764 768 771 775 779 783 787 789 792 794 797 800 803 806 809 811 813 816 818 820 822 825 827 828 831 832 834 836
772 754 734 732 728 719 720 717 707 715 729 731 732 739 736 726 733 753 761 754 756 766 755 741 737 727 717 708 695 695 698 695 695 694 692 694 694 698 703 702 704 707 708 710 711 712 715 718 722 725 729 733 737 741 745 748 752 756 760 764 768 772 776 780 783 786 789 792 795 798 801 804 806 809 811 813 815 817 820 823 825 827 829 830 832 834
776 763 743 738 732 719 720 719 708 704 711 726 736 730 722 726 730 743 761 762 763 771 756 737 735 731 727 719 700 696 702 698 696 695 692 692 695 698 697 696 698 698 700 703 703 706 710 714 718 721 724 728 731 735 739 744 749 752 756 760 764 768 772 776 780 783 786 789 792 795 798 801 804 806 808 810 812 815 818 820 823 825 827 828 830 832
774 771 749 737 738 729 720 720 715 706 702 711 719 713 720 741 744 743 757 764 767 773 759 742 738 731 725 716 702 699 701 696 695 695 692 692 693 694 693 692 693 694 697 699 700 704 708 710 714 717 720 724 727 732 736 741 746 750 754 757 760 764 767 772 777 780 784 787 790 793 795 798 801 803 806 808 811 813 815 817 820 822 824 826 828 830
770 774 759 740 739 737 726 723 723 716 707 705 709 711 715 727 736 739 743 747 757 768 761 749 743 730 715 703 695 694 693 690 693 694 692 690 687 688 688 688 690 692 694 695 696 699 702 704 707 710 714 718 723 728 733 739 744 747 751 754 757 761 765 769 773 776 780 784 787 791 793 796 798 801 804 806 808 810 812 814 817 819 821 824 826 828
768 775 770 752 743 740 730 726 727 725 723 720 720 722 720 718 722 730 732 730 739 754 757 755 749 725 701 692 687 683 682 682 684 686 687 685 681 681 681 682 685 687 688 689 690 693 695 698 701 705 710 715 721 727 732 736 739 743 747 751 754 758 762 766 769 773 777 780 784 787 790 793 795 798 801 803 806 808 809 812 814 816 819 821 824 825
771 775 776 767 760 753 741 731 730 733 736 736 731 725 721 719 723 736 743 731 726 737 741 746 749 722 690 684 683 677 675 675 675 677 680 679 677 675 675 676 678 680 682 683 684 687 689 692 696 701 707 713 718 723 727 731 735 739 744 747 751 755 758 761 766 770 773 777 780 783 786 789 792 795 798 801 803 805 807 809 811 814 817 819 821 823
768 772 776 774 767 758 742 730 729 733 735 736 734 728 723 719 720 734 744 732 724 729 726 732 742 716 682 676 678 674 672 671 670 673 674 675 674 672 671 671 672 674 675 676 679 682 684 687 692 698 704 708 712 716 721 726 730 735 739 743 747 751 754 758 761 766 770 774 777 780 784 787 790 793 795 798 800 802 804 806 809 811 814 816 818 820
767 772 776 773 760 744 733 728 727 728 732 736 739 739 738 733 731 734 731 723 724 726 724 735 740 710 678 674 676 674 673 672 671 671 670 671 672 671 670 669 670 672 672 673 676 678 681 685 691 697 701 704 708 712 717 721 726 730 735 739 743 746 750 754 758 763 767 770 774 777 781 784 787 790 792 795 797 799 801 804 806 809 811 813 815 817
773 775 776 776 765 746 732 731 733 735 743 750 752 750 746 742 743 737 722 717 723 718 717 732 732 703 681 679 678 675 674 672 671 670 669 669 670 670 668 667 667 669 670 672 674 676 681 686 690 693 696 699 704 707 711 716 721 725 730 734 738 742 747 751 755 760 764 767 771 775 778 781 784 787 789 792 794 796 799 801 804 806 808 810 812 814
776 775 775 779 778 763 750 750 760 765 765 761 756 752 749 749 749 740 730 731 730 716 711 718 712 694 683 678 675 674 674 672 670 669 670 669 668 669 668 667 666 666 668 670 672 674 678 682 684 687 690 694 699 702 707 712 716 721 725 730 734 739 744 748 752 757 761 764 768 771 775 778 781 783 786 788 791 793 796 799 801 803 805 807 809 811
777 774 774 777 778 772 767 769 774 777 774 767 759 753 752 751 749 747 748 744 729 717 713 705 695 692 686 678 675 673 673 674 671 668 668 667 665 666 667 666 664 663 664 665 667 671 675 678 680 682 685 689 694 698 703 707 712 717 722 726 731 736 740 745 749 753 757 761 765 768 771 774 776 779 782 784 787 790 792 795 797 799 802 804 806 808
780 778 774 774 774 772 771 772 770 771 772 770 764 757 751 748 747 749 750 740 726 722 716 698 689 691 684 676 677 673 669 671 671 667 664 662 661 660 661 663 663 662 661 662 664 668 671 674 676 678 682 685 690 695 700 705 709 713 718 722 728 733 737 741 746 749 753 757 761 764 766 769 772 775 777 780 784 786 789 791 794 796 798 801 802 804
783 782 774 773 774 771 769 769 768 769 769 766 762 758 751 746 745 744 741 733 728 729 717 696 689 685 672 667 671 668 665 666 665 663 660 657 657 656 657 659 660 660 659 660 662 664 666 669 672 675 678 682 687 692 697 702 707 711 716 720 724 728 732 737 741 745 749 753 756 758 761 765 768 771 774 778 781 783 786 788 790 792 795 797 799 800
783 782 774 773 774 771 769 767 764 765 764 761 757 753 747 742 738 734 730 725 724 725 716 701 693 681 666 664 666 664 663 663 661 661 661 659 657 656 655 656 655 654 654 655 657 658 660 663 666 670 674 679 684 688 693 698 702 706 711 715 720 724 728 733 737 741 745 748 751 754 758 762 765 769 772 775 777 780 782 785 787 789 791 793 795 797
784 782 773 772 775 770 765 762 760 762 763 761 755 747 743 739 732 726 723 720 718 718 711 705 701 685 668 668 671 666 663 661 661 662 662 660 657 654 652 651 648 648 649 650 652 654 656 659 663 668 672 676 679 683 688 692 697 701 707 711 716 720 724 729 733 737 741 744 748 752 756 759 763 766 768 771 774 776 779 781 784 786 788 790 792 794
786 784 777 776 777 770 762 761 761 761 759 757 753 746 741 737 732 728 724 722 721 717 706 700 697 686 677 677 677 669 665 665 666 667 665 662 656 651 649 647 644 644 645 646 649 651 653 657 661 665 669 671 675 680 684 688 694 699 703 707 711 716 722 726 730 734 738 741 746 750 753 756 760 762 765 768 770 773 775 778 780 782 784 786 788 790
786 788 786 782 777 769 763 763 763 761 755 749 744 742 740 736 733 731 726 723 722 721 713 702 694 690 689 686 679 672 669 669 670 670 667 663 657 650 645 643 643 641 641 642 645 647 650 653 656 658 662 666 671 675 679 684 689 693 697 702 708 714 719 723 726 731 735 739 743 746 749 753 756 758 761 763 766 769 772 774 776 778 780 782 784 786
785 788 788 783 777 771 765 762 763 761 753 740 733 734 736 733 733 735 730 724 721 719 716 709 702 697 694 687 681 678 674 671 670 668 665 662 659 652 644 641 641 641 640 641 642 643 646 648 651 654 657 661 666 670 676 682 686 691 697 702 707 712 716 720 724 728 731 735 739 742 745 749 752 754 757 759 762 765 768 770 772 773 776 778 780 782
785 786 786 783 778 772 766 764 764 758 746 733 728 729 729 727 730 732 726 720 720 718 714 711 706 699 691 685 680 677 673 670 668 664 661 659 657 653 646 639 638 639 641 642 642 643 644 646 649 653 656 660 665 671 677 682 687 692 697 701 706 710 713 717 721 724 728 731 735 738 742 745 747 750 753 756 759 762 764 766 767 769 772 774 775 777
783 786 785 782 777 772 769 767 761 749 736 730 729 729 728 728 731 733 728 720 719 719 716 713 707 697 690 684 678 673 671 668 665 662 660 657 654 653 649 642 636 636 638 640 641 642 643 644 647 651 655 660 665 670 675 680 685 690 694 699 703 707 711 715 719 722 725 728 731 735 738 741 744 747 749 753 756 758 760 762 763 765 768 770 771 773
778 783 785 783 775 770 770 768 759 747 737 734 736 735 735 737 737 740 740 728 718 718 719 715 709 699 691 683 676 672 668 667 668 666 661 657 654 652 649 644 638 635 634 636 639 641 643 645 648 652 656 661 665 669 674 679 683 688 693 697 701 705 709 713 716 718 721 725 728 731 734 737 740 743 746 749 752 754 756 757 759 761 764 766 767 769
773 778 783 783 775 769 770 769 761 749 739 740 744 739 737 738 734 736 742 733 720 719 720 716 712 704 694 684 676 670 668 672 679 676 666 661 658 653 650 646 640 636 634 635 637 640 643 646 649 653 657 661 665 670 674 678 682 686 691 695 699 703 707 710 712 715 718 721 724 727 730 733 736 739 742 745 747 749 751 753 755 757 759 761 763 764
771 775 779 783 780 775 774 772 765 751 740 742 745 737 734 735 732 732 738 734 726 723 722 718 714 707 698 689 679 672 674 683 688 682 671 665 661 657 654 649 643 639 637 635 636 639 643 646 649 653 657 661 665 669 673 677 681 685 689 693 696 700 704 706 708 711 714 717 720 723 726 729 732 735 738 741 743 745 746 748 750 752 755 757 759 760
773 778 781 784 784 779 775 773 766 753 743 741 740 735 732 730 729 733 738 736 731 728 725 721 716 710 703 693 683 680 684 689 689 681 673 667 663 660 657 653 648 643 640 639 639 640 643 646 649 653 656 659 663 667 671 675 679 683 687 691 694 698 700 701 704 707 710 714 717 720 723 726 729 731 734 737 739 740 742 744 746 749 752 754 756 757
775 779 780 780 779 776 775 774 764 750 742 739 737 734 728 723 728 737 741 740 737 732 728 724 719 714 708 699 692 692 691 687 682 677 672 669 667 664 660 656 652 647 645 644 644 644 645 648 650 652 655 658 661 665 669 672 676 681 685 689 692 694 696 698 702 705 709 712 715 718 720 723 725 728 730 733 735 737 739 741 743 746 748 750 752 754
773 775 776 776 774 772 771 769 761 749 741 738 736 730 722 725 738 745 742 740 739 735 731 727 721 716 712 706 700 696 691 684 680 678 675 673 672 670 666 661 657 653 651 650 649 649 650 651 653 655 657 659 661 664 667 671 675 679 683 687 689 691 694 698 701 704 707 709 712 715 717 720 722 725 727 730 732 735 737 738 740 742 744 746 748 750
768 770 770 769 768 767 766 763 759 752 743 736 736 733 730 738 751 750 741 739 738 735 733 729 723 720 716 709 701 695 691 688 685 682 680 678 676 674 671 667 663 661 658 656 656 656 655 655 657 658 659 661 662 664 667 670 674 678 682 685 688 690 694 697 699 702 704 707 709 711 714 717 719 722 724 726 729 732 733 735 737 739 741 743 745 747
769 770 769 766 762 762 762 758 755 752 746 739 739 741 743 747 751 748 745 742 739 736 734 730 725 722 717 711 705 699 696 695 691 687 684 683 682 680 676 672 670 667 665 663 662 662 661 661 661 661 662 663 664 666 669 671 674 678 682 684 687 689 692 694 697 700 702 704 706 708 711 713 716 718 720 722 725 728 729 731 734 735 737 739 741 743
772 770 770 769 764 761 759 754 748 747 747 744 743 745 748 750 750 749 749 747 743 740 737 732 727 722 717 713 710 706 703 701 698 693 691 689 687 685 682 679 676 674 672 669 668 667 666 666 666 665 666 666 668 669 671 672 675 678 682 684 686 688 689 692 694 696 698 700 702 705 707 710 712 714 716 718 720 723 725 727 730 732 734 736 738 739
770 766 766 769 767 760 754 749 747 747 747 747 747 747 749 752 752 751 751 749 746 743 738 733 728 724 719 716 714 711 709 706 702 698 695 693 691 689 687 685 682 680 677 674 673 672 671 671 671 670 670 671 671 672 674 675 676 678 681 684 685 687 688 689 691 693 695 697 699 701 703 706 708 710 712 714 716 718 720 722 725 727 729 731 733 735
769 765 765 770 771 764 752 746 748 749 747 747 749 749 750 752 752 752 752 750 748 745 740 734 729 725 721 718 717 715 712 708 706 704 701 698 696 694 693 691 689 686 683 680 678 677 676 675 675 675 675 675 676 676 677 678 679 680 681 682 684 687 688 688 690 692 693 695 696 698 700 702 704 706 709 711 713 715 717 719 721 723 725 727 729 732
770 766 768 772 773 766 755 751 751 749 745 746 750 750 751 752 751 750 750 750 748 746 743 735 729 728 725 722 721 719 715 710 708 707 705 703 702 700 698 696 693 690 687 684 682 682 681 680 680 680 679 679 680 680 680 680 682 683 682 681 683 686 687 688 690 691 692 694 695 696 698 699 701 703 706 708 710 712 714 716 718 719 721 722 725 727
770 770 772 774 773 767 758 755 755 752 747 748 750 749 751 753 751 748 749 749 749 748 745 737 732 730 730 728 726 723 719 714 710 708 706 705 704 704 702 700 697 693 690 688 686 685 685 684 683 683 682 682 683 683 682 682 683 683 682 682 683 685 687 688 689 690 692 693 694 695 696 698 699 701 703 705 707 709 711 713 715 717 718 720 722 724
773 774 774 774 773 767 760 758 761 762 758 754 751 750 750 751 750 748 748 748 748 747 745 740 736 733 732 731 729 727 724 719 713 710 708 705 704 705 704 702 699 695 691 690 689 687 687 686 685 684 684 684 684 684 684 683 683 683 683 683 684 685 686 687 688 689 691 692 694 694 695 696 697 699 701 702 704 707 709 711 713 715 717 718 720 722
775 775 774 774 773 767 760 759 761 763 761 755 752 751 749 748 749 748 746 745 745 744 742 741 738 737 736 734 731 729 728 723 717 714 711 707 705 704 703 702 701 698 694 692 691 689 688 687 686 685 685 685 685 684 684 684 684 684 684 684 685 685 685 686 687 688 689 691 693 694 694 695 696 697 699 701 703 705 707 710 712 714 715 717 718 720